Tracking 19831 objects as of 23-Aug-2019
HD Live streaming from Space Station
objects crossing your sky now

CZ-2D DEB

Track CZ-2D DEB now!
10-day predictions


NORAD ID: 43507
Int'l Code: 2018-025E
Perigee: 426.6 km
Apogee: 490.3 km
Inclination: 97.3 °
Period: 93.6 minutes
Semi major axis: 6829 km
RCS: Unknown
Launch date: March 17, 2018
Source: People's Republic of China (PRC)
Launch site: Jiuquan Satellite Launch Center, China (JSC)

Note: This is SATELLITE DEBRIS
aabbcc
Your satellite tracking list
Your tracking list is empty




NASA's NSSDC Master Catalog

Two Line Element Set (TLE):
1 43507U 18025E   19235.32446711  .00002937  00000-0  77405-4 0  9991
2 43507  97.2687 353.0373 0046665 238.7590 120.9079 15.38241939 78003
Source of the keplerian elements: AFSPC